Location: Eyeline Observatory
(43.2182°N, 78.8632°W)
Time: 15:58:10
(UTC-04:00)

Tiangong 2 - Pass Details

Date: 14 October 2017
Orbit: 388 x 391 km, 42.8° (Epoch: 20 October)

Event Time Altitude Azimuth Distance (km) Brightness Sun altitude
Exits shadow 06:30:51 19° 271° (W) 1,015 2.5 -11.2°
Maximum altitude 06:33:02 83° 185° (S) 397 1.1 -10.8°
Drops below altitude 10° 06:36:15 10° 97° (E) 1,421 5.5 -10.3°
Sets 06:38:20 0° 96° (E) 2,277 7.3 -9.9°
